Location: Wyoming Infrared Observatory
(41.0971°N, 105.9765°W)
Time: 12:04:28
(UTC-06:00)

Amateur Radio Satellites - All Passes

Search period start: 29 August 2014 11:34
Search period end: 30 August 2014 11:34
Location: Wyoming Infrared Observatory, 41.0971°N, 105.9765°W

Satellite Date Start Highest point End Downlink Frequencies (MHz)
Time Altitude Azimuth
Oscar 11 29 Aug 11:36:24 11:40:21 34° 290° (WNW) 11:44:16 145.825 FM, Beacon 2401.500 USB
FUNcube-1 29 Aug 11:57:27 12:01:50 52° 287° (WNW) 12:06:16 145.950 - 145.970 MHz USB
RS-15 29 Aug 12:15:12 12:23:12 22° 344° (NNW) 12:31:16 29.354 - 29.394 USB, Beacon 29.352 USB
Oscar 19 29 Aug 12:26:34 12:29:35 16° 61° (ENE) 12:32:37 437.125 CW, 437.150 USB
ISS 29 Aug 12:33:57 12:37:01 34° 333° (NNW) 12:40:06 145.800 FM
HO-68 29 Aug 12:51:08 12:52:47 11° 312° (NW) 12:54:26 435.675 MHz FM
JAS-1B 29 Aug 12:51:40 12:58:56 25° 58° (ENE) 13:05:39 435.800 - 435.900 CW/SSB
ITAMSAT 1 29 Aug 12:56:17 12:58:41 13° 59° (ENE) 13:01:04 435.822 SSB
Oscar 16 29 Aug 12:59:21 13:03:52 32° 67° (ENE) 13:08:26 437.025 USB, Beacon 2401.1428
AO-Echo 29 Aug 13:05:34 13:08:41 17° 63° (ENE) 13:11:46 ?
Uribyol 2 29 Aug 13:05:35 13:08:52 17° 62° (ENE) 13:12:10 436.500 FM
SO-50 29 Aug 13:05:51 13:10:38 66° 55° (NE) 13:15:27 436.795 FM
AO-27 29 Aug 13:22:56 13:27:00 24° 65° (ENE) 13:31:04 436.795 MHz FM
UOSAT-12 29 Aug 13:34:38 13:37:32 16° 39° (NE) 13:40:25 437.025 FM, 437.400 FM
MaSat-1 29 Aug 13:43:23 13:48:08 59° 111° (ESE) 13:53:13 437.345 MHz
Gurwin Techsat 1B 29 Aug 13:43:38 13:46:57 17° 61° (ENE) 13:50:17 435.225 FM
Oscar 19 29 Aug 14:03:12 14:08:20 69° 258° (WSW) 14:13:31 437.125 CW, 437.150 USB
ISS 29 Aug 14:12:35 14:14:30 14° 353° (N) 14:16:26 145.800 FM
PANSAT 29 Aug 14:25:04 14:26:46 13° 179° (S) 14:28:27 not established
ITAMSAT 1 29 Aug 14:32:17 14:37:28 82° 256° (WSW) 14:42:40 435.822 SSB
RS-15 29 Aug 14:32:30 14:40:58 24° 21° (NNE) 14:49:34 29.354 - 29.394 USB, Beacon 29.352 USB
TMSAT-1 29 Aug 14:34:23 14:39:07 35° 68° (ENE) 14:43:53 436.925 FM
JAS-1B 29 Aug 14:38:38 14:48:33 87° 255° (WSW) 14:57:32 435.800 - 435.900 CW/SSB
Oscar 16 29 Aug 14:38:38 14:43:10 31° 264° (W) 14:47:45 437.025 USB, Beacon 2401.1428
AO-Echo 29 Aug 14:42:00 14:47:01 60° 259° (W) 14:51:53 ?
Uribyol 2 29 Aug 14:42:45 14:47:50 62° 259° (WSW) 14:52:58 436.500 FM
SO-50 29 Aug 14:47:57 14:50:41 15° 251° (WSW) 14:53:25 436.795 FM
AO-7 29 Aug 14:49:49 14:56:12 25° 54° (NE) 15:02:34 29.400 - 29.500 MHz
Oscar 10/S400 29 Aug 14:52:56 14:57:12 11° 149° (SSE) 15:01:06 145.825 - 145.975 CW/USB, Beacon 145.810 USB
AO-27 29 Aug 15:01:20 15:06:14 43° 261° (W) 15:11:10 436.795 MHz FM
UOSAT-12 29 Aug 15:13:35 15:18:21 86° 238° (WSW) 15:23:00 437.025 FM, 437.400 FM
Gurwin Techsat 1B 29 Aug 15:21:06 15:26:22 66° 258° (WSW) 15:31:40 435.225 FM
MaSat-1 29 Aug 15:21:50 15:25:37 21° 310° (NW) 15:29:31 437.345 MHz
Uosat F 29 Aug 15:32:18 15:36:16 24° 65° (ENE) 15:40:13 435.120 FM
ISS 29 Aug 15:50:02 15:52:16 17° 13° (NNE) 15:54:30 145.800 FM
TMSAT-1 29 Aug 16:14:29 16:19:03 29° 265° (W) 16:23:38 436.925 FM
JAS-1B 29 Aug 16:33:07 16:39:48 20° 271° (W) 16:46:11 435.800 - 435.900 CW/SSB
AO-7 29 Aug 16:39:48 16:48:09 79° 253° (WSW) 16:56:31 29.400 - 29.500 MHz
JAS-2 29 Aug 16:40:02 16:43:00 14° 61° (ENE) 16:45:50 435.800 - 435.900 CW/SSB, 435.910 FM
RS-15 29 Aug 16:45:17 16:56:14 61° 51° (NE) 17:07:33 29.354 - 29.394 USB, Beacon 29.352 USB
Sapphire 29 Aug 16:48:48 16:53:18 28° 108° (ESE) 16:57:50 437.095 MHz 1200 baud AX-25 AFSK
OPAL 29 Aug 16:48:49 16:53:05 25° 97° (E) 16:57:19 ?
Uosat F 29 Aug 17:10:06 17:14:48 40° 261° (W) 17:19:32 435.120 FM
PCSat 29 Aug 17:17:30 17:22:44 53° 114° (ESE) 17:28:01 145.825 MHz
ISS 29 Aug 17:26:16 17:29:34 55° 32° (NNE) 17:32:50 145.800 FM
Hamsat 29 Aug 17:30:56 17:34:41 30° 70° (ENE) 17:38:29 145.90 MHz
JAS-2 29 Aug 18:21:12 18:27:31 85° 256° (WSW) 18:33:09 435.800 - 435.900 CW/SSB, 435.910 FM
OPAL 29 Aug 18:27:11 18:32:04 41° 293° (WNW) 18:36:55 ?
Sapphire 29 Aug 18:31:24 18:36:30 42° 306° (NW) 18:41:40 437.095 MHz 1200 baud AX-25 AFSK
STRAND 1 29 Aug 18:32:31 18:34:08 11° 89° (E) 18:35:45 ?
AO-7 29 Aug 18:37:59 18:42:08 14° 271° (W) 18:46:18 29.400 - 29.500 MHz
RS-15 29 Aug 18:58:09 19:08:08 41° 252° (WSW) 19:18:31 29.354 - 29.394 USB, Beacon 29.352 USB
PCSat 29 Aug 19:02:04 19:06:28 25° 313° (NW) 19:10:53 145.825 MHz
ISS 29 Aug 19:03:45 19:06:01 17° 228° (SW) 19:08:17 145.800 FM
Hamsat 29 Aug 19:07:10 19:10:38 24° 266° (W) 19:14:09 145.90 MHz
SO-67 29 Aug 19:14:11 19:17:35 59° 76° (ENE) 19:21:01 435.3500 MHz FM
HO-68 29 Aug 19:42:17 19:47:30 22° 57° (ENE) 19:52:42 435.675 MHz FM
STRAND 1 29 Aug 20:08:48 20:13:55 81° 285° (WNW) 20:19:01 ?
JAS-2 29 Aug 20:11:47 20:13:10 11° 270° (W) 20:14:32 435.800 - 435.900 CW/SSB, 435.910 FM
UKube-1 29 Aug 20:48:28 20:51:56 24° 67° (ENE) 20:55:24 145.840 MHz, 145.915 MHz
Oscar 11 29 Aug 20:56:23 20:59:16 18° 65° (ENE) 21:02:10 145.825 FM, Beacon 2401.500 USB
FUNcube-1 29 Aug 21:20:34 21:22:06 12° 62° (ENE) 21:23:38 145.950 - 145.970 MHz USB
HO-68 29 Aug 21:27:20 21:34:28 75° 255° (WSW) 21:41:39 435.675 MHz FM
STRAND 1 29 Aug 21:51:21 21:52:15 10° 303° (WNW) 21:53:09 ?
MaSat-1 29 Aug 22:02:27 22:05:12 15° 46° (NE) 22:07:46 437.345 MHz
UKube-1 29 Aug 22:24:08 22:27:59 31° 263° (W) 22:31:52 145.840 MHz, 145.915 MHz
Oscar 11 29 Aug 22:31:00 22:35:07 43° 261° (W) 22:39:17 145.825 FM, Beacon 2401.500 USB
KITSAT 1 29 Aug 22:33:36 22:38:55 20° 102° (ESE) 22:44:14 435.175 FM
FUNcube-1 29 Aug 22:53:48 22:57:55 63° 259° (W) 23:02:09 145.950 - 145.970 MHz USB
HO-68 29 Aug 23:20:56 23:23:16 12° 273° (W) 23:25:36 435.675 MHz FM
Saudisat 1A 29 Aug 23:22:55 23:27:20 87° 122° (ESE) 23:31:46 436.775 MHz
MaSat-1 29 Aug 23:38:17 23:42:52 67° 248° (WSW) 23:46:47 437.345 MHz
KITSAT 1 30 Aug 00:25:10 00:33:17 86° 300° (WNW) 00:41:26 435.175 FM
Saudisat 1A 30 Aug 01:05:07 01:07:31 14° 321° (NW) 01:09:57 436.775 MHz
Oscar 16 30 Aug 01:13:44 01:14:50 11° 88° (E) 01:15:55 437.025 USB, Beacon 2401.1428
Sapphire 30 Aug 01:36:19 01:40:46 25° 48° (NE) 01:45:11 437.095 MHz 1200 baud AX-25 AFSK
PCSat 30 Aug 02:05:30 02:10:41 43° 54° (NE) 02:15:49 145.825 MHz
AO-40 30 Aug 02:07:33 03:17:13 16° 233° (SW) 05:05:25 Beacon 2401.320
Oscar 19 30 Aug 02:15:02 02:19:59 43° 98° (E) 02:24:54 437.125 CW, 437.150 USB
KITSAT 1 30 Aug 02:23:31 02:29:52 25° 323° (NW) 02:36:14 435.175 FM
JAS-1B 30 Aug 02:27:44 02:33:00 24° 90° (E) 02:37:44 435.800 - 435.900 CW/SSB
ITAMSAT 1 30 Aug 02:45:32 02:50:17 36° 97° (E) 02:55:01 435.822 SSB
AO-Echo 30 Aug 02:49:25 02:53:52 42° 99° (E) 02:58:20 ?
Oscar 16 30 Aug 02:49:36 02:54:50 87° 285° (WNW) 03:00:02 437.025 USB, Beacon 2401.1428
TMSAT-1 30 Aug 02:51:47 02:54:19 13° 89° (E) 02:56:50 436.925 FM
Uribyol 2 30 Aug 02:55:33 03:00:34 47° 100° (E) 03:05:34 436.500 FM
AO-27 30 Aug 03:14:04 03:19:15 68° 102° (ESE) 03:24:25 436.795 MHz FM
Sapphire 30 Aug 03:19:13 03:24:29 53° 246° (WSW) 03:29:44 437.095 MHz 1200 baud AX-25 AFSK
SO-50 30 Aug 03:22:02 03:25:20 21° 111° (ESE) 03:28:42 436.795 FM
Oscar 10/S400 30 Aug 03:24:40 04:37:00 38° 233° (SW) 09:16:54 145.825 - 145.975 CW/USB, Beacon 145.810 USB
Gurwin Techsat 1B 30 Aug 03:37:27 03:42:37 51° 100° (E) 03:47:46 435.225 FM
PCSat 30 Aug 03:49:21 03:53:52 27° 252° (WSW) 03:58:22 145.825 MHz
Oscar 19 30 Aug 03:54:57 03:59:03 24° 295° (WNW) 04:03:09 437.125 CW, 437.150 USB
OPAL 30 Aug 04:03:26 04:08:12 44° 68° (ENE) 04:13:03 ?
JAS-1B 30 Aug 04:17:33 04:24:09 50° 293° (WNW) 04:29:51 435.800 - 435.900 CW/SSB
ITAMSAT 1 30 Aug 04:25:16 04:29:38 28° 294° (WNW) 04:34:00 435.822 SSB
KITSAT 1 30 Aug 04:27:03 04:28:55 11° 352° (N) 04:30:47 435.175 FM
AO-Echo 30 Aug 04:28:57 04:32:22 20° 295° (WNW) 04:35:47 ?
TMSAT-1 30 Aug 04:29:29 04:34:46 74° 286° (WNW) 04:40:03 436.925 FM
Oscar 16 30 Aug 04:31:35 04:33:23 12° 302° (WNW) 04:35:11 437.025 USB, Beacon 2401.1428
Uribyol 2 30 Aug 04:35:47 04:39:42 22° 296° (WNW) 04:43:37 436.500 FM
AO-7 30 Aug 04:41:55 04:49:23 36° 98° (E) 04:56:48 29.400 - 29.500 MHz
AO-27 30 Aug 04:55:08 04:58:11 16° 299° (WNW) 05:01:15 436.795 MHz FM
SO-50 30 Aug 05:01:18 05:05:34 44° 309° (NW) 05:09:59 436.795 FM
Uosat F 30 Aug 05:17:29 05:22:27 62° 102° (ESE) 05:27:24 435.120 FM
Gurwin Techsat 1B 30 Aug 05:18:17 05:22:12 22° 297° (WNW) 05:26:07 435.225 FM
UOSAT-12 30 Aug 05:25:07 05:29:05 29° 113° (ESE) 05:33:07 437.025 FM, 437.400 FM
OPAL 30 Aug 05:43:21 05:47:15 22° 264° (W) 05:51:14 ?
STRAND 1 30 Aug 05:47:38 05:51:04 19° 62° (ENE) 05:54:30 ?
Saudisat 1A 30 Aug 06:12:29 06:13:45 11° 36° (NE) 06:15:02 436.775 MHz
KITSAT 1 30 Aug 06:24:12 06:28:42 15° 24° (NNE) 06:33:10 435.175 FM
AO-7 30 Aug 06:34:26 06:42:21 52° 296° (WNW) 06:50:15 29.400 - 29.500 MHz
Hamsat 30 Aug 06:52:00 06:56:20 62° 100° (E) 07:00:36 145.90 MHz
Uosat F 30 Aug 06:57:39 07:00:44 17° 298° (WNW) 07:03:49 435.120 FM
UOSAT-12 30 Aug 07:04:54 07:09:08 34° 311° (NW) 07:13:27 437.025 FM, 437.400 FM
RS-15 30 Aug 07:09:53 07:19:32 36° 107° (ESE) 07:29:00 29.354 - 29.394 USB, Beacon 29.352 USB
JAS-2 30 Aug 07:14:41 07:19:57 84° 104° (ESE) 07:25:36 435.800 - 435.900 CW/SSB, 435.910 FM
STRAND 1 30 Aug 07:24:49 07:29:49 56° 259° (W) 07:34:50 ?
Saudisat 1A 30 Aug 07:49:47 07:54:12 66° 55° (NE) 07:58:34 436.775 MHz
SO-67 30 Aug 08:10:53 08:14:21 74° 101° (E) 08:17:48 435.3500 MHz FM
KITSAT 1 30 Aug 08:18:42 08:26:27 47° 50° (NE) 08:34:08 435.175 FM
Hamsat 30 Aug 08:29:48 08:31:46 13° 297° (WNW) 08:33:43 145.90 MHz
AO-7 30 Aug 08:30:40 08:33:13 12° 317° (NW) 08:35:45 29.400 - 29.500 MHz
HO-68 30 Aug 08:56:20 09:01:29 21° 92° (E) 09:06:36 435.675 MHz FM
JAS-2 30 Aug 09:02:20 09:04:27 12° 300° (WNW) 09:06:36 435.800 - 435.900 CW/SSB, 435.910 FM
RS-15 30 Aug 09:20:14 09:31:11 65° 308° (NW) 09:42:04 29.354 - 29.394 USB, Beacon 29.352 USB
Saudisat 1A 30 Aug 09:31:15 09:33:13 13° 252° (WSW) 09:35:10 436.775 MHz
ISS 30 Aug 10:09:38 10:11:59 18° 132° (SE) 10:14:19 145.800 FM
UKube-1 30 Aug 10:11:59 10:16:07 42° 99° (E) 10:20:14 145.840 MHz, 145.915 MHz
KITSAT 1 30 Aug 10:14:19 10:21:46 43° 250° (WSW) 10:29:11 435.175 FM
Oscar 11 30 Aug 10:18:43 10:22:41 33° 97° (E) 10:26:38 145.825 FM, Beacon 2401.500 USB
HO-68 30 Aug 10:42:39 10:49:47 72° 289° (WNW) 10:56:54 435.675 MHz FM
FUNcube-1 30 Aug 10:43:09 10:46:56 25° 95° (E) 10:50:44 145.950 - 145.970 MHz USB
